Погода в Халкиде

Греция     38°27′42″N   23°35′32″E
темп.,
°C
ветер,
м/с
пор.,
м/с
влажн.,
%
обл.,
%
осадки,
мм/ч
давл.,
гПа
погр.,
м
2 марта, вт
вт223:00+10с24700 0.0 1028344
02:00+9ссв58789 0.2 1030710
05:00+8св8117791 0.6 1030970
08:00+8св7117291 0.7 10321227
11:00+9ссв9116331 0.1 10331582
14:00+10ссв9116036 0.1 10311603
17:00+9ссв796521 0.1 10301329
20:00+8ссз366418 0.1 1031777
3 марта, ср
ср323:00+8ссз35687 0.0 1031634
02:00+7сз34716 0.0 1030554
05:00+7сз45743 0.0 1030575
08:00+8сз467312 0.0 1030630
11:00+12ссз7106024 0.0 10311484
14:00+13с585212 0.0 10301326
17:00+12ссз36480 0.0 10291028
20:00+10с23540 0.0 1029314
4 марта, чт
чт423:00+9с22600 0.0 1029127
02:00+8сз11600 0.0 1028103
05:00+8з12610 0.0 1026145
08:00+8з12610 0.0 1026147
11:00+12сз12520 0.0 1025359
14:00+13ссв11510 0.0 1023363
17:00+14в12490 0.0 1021139
20:00+12юв34640 0.0 1021130
5 марта, пт
пт523:00+11ююв23580 0.0 1020101
02:00+10ю225824 0.0 101983
05:00+9ю126447 0.0 101876
08:00+10ю126426 0.0 101889
11:00+14юв124538 0.0 1018414
14:00+17ююз133524 0.0 1016498
17:00+16вюв345567 0.0 1016119
20:00+14ю346183 0.0 1017118
6 марта, сб
сб623:00+13ю2357100 0.0 101890
02:00+11ююз225977 0.1 101891
05:00+11з125978 0.1 1018113
08:00+11зюз116281 0.1 1019109
11:00+14сз015316 0.0 1019484
14:00+15сз12538 0.0 1018750
17:00+16ссв015414 0.0 1018397
20:00+13юв22717 0.0 101996